Sioux Falls, SD

1:04 PM CST on February 23, 2018 (GMT -0600)
Foss

Weather History for KFSD - May, 2013

Change the Weather History Date:

Monday, May 20, 2013

  Actual Average Record
Temperature  
Mean Temperature 61 °F 59 °F  
Max Temperature 67 °F 71 °F 95 °F (1934)
Min Temperature 55 °F 48 °F 27 °F (1967)
Degree Days  
Heating Degree Days 4 7  
Month to date heating degree days 212 189  
Since 1 July heating degree days 7753 7596  
Cooling Degree Days 0 1  
Month to date cooling degree days 32 16  
Year to date cooling degree days 36 21  
Growing Degree Days 10 (Base 50)    
Moisture  
Dew Point 55 °F    
Average Humidity 82    
Maximum Humidity 100    
Minimum Humidity 63    
Precipitation  
Precipitation T in 0.12 in 1.89 in (1999)
Month to date precipitation 2.48 2.14  
Year to date precipitation 7.84 8.07  
Snow  
Snow 0.00 in 0.00 in - ()
Month to date snowfall 1.5 0.4  
Since 1 July snowfall 43.3 44.9  
Snow Depth 0.00 in    
Sea Level Pressure  
Sea Level Pressure 29.49 in    
Wind  
Wind Speed 9 mph (SW)    
Max Wind Speed 20 mph    
Max Gust Speed 28 mph    
Visibility 9 miles    
Events Rain , Thunderstorm    
T = Trace of Precipitation, MM = Missing Value Source: NWS Daily Summary

Daily Weather History Graph

Daily Weather History Graph

Search for Another Location

Airport or City:

Trip Planner

Search our weather history database for the weather conditions in past years. The results will help you decide how hot, cold, wet, or windy it might be!

Date:

Astronomy

May. 20, 2013 Rise Set
Actual Time 5:56 AM CDT 8:50 PM CDT
Civil Twilight 5:23 AM CDT 9:24 PM CDT
Nautical Twilight 4:40 AM CDT 10:07 PM CDT
Astronomical Twilight 3:50 AM CDT 10:57 PM CDT
Moon 3:51 PM CDT (5/20) 3:01 AM CDT (5/20)
Length of Visible Light 16h 01m
Length of Day
14h 53m
Waxing Gibbous, 75% of the Moon is Illuminated
May 20
Waxing Gibbous
May 24
Full
May 31
Last Quarter
Jun 8
New
Jun 16
First Quarter

Hourly Weather History & Observations

Time (CDT) Temp. Dew Point Humidity Pressure Visibility Wind Dir Wind Speed Gust Speed Precip Events Conditions
12:07 AM 64.4 °F 60.8 °F 88% 29.51 in 7.0 mi NE 9.2 mph - N/A   Partly Cloudy
12:56 AM 63.0 °F 61.0 °F 93% 29.47 in 7.0 mi ENE 10.4 mph - N/A   Overcast
1:56 AM 61.0 °F 59.0 °F 93% 29.47 in 9.0 mi South 12.7 mph - 0.00 in Rain Light Rain
2:12 AM 59.0 °F 55.4 °F 88% 29.49 in 10.0 mi South 12.7 mph - 0.00 in Rain Light Rain
2:33 AM 57.2 °F 57.2 °F 100% 29.49 in 10.0 mi South 10.4 mph - 0.00 in   Overcast
2:46 AM 57.2 °F 55.4 °F 94% 29.49 in 10.0 mi South 9.2 mph - 0.00 in   Overcast
2:56 AM 57.9 °F 55.9 °F 93% 29.48 in 10.0 mi South 8.1 mph - 0.00 in   Overcast
3:07 AM 57.2 °F 55.4 °F 94% 29.48 in 10.0 mi South 6.9 mph - N/A Thunderstorm Overcast
3:45 AM 59.0 °F 55.4 °F 88% 29.47 in 10.0 mi South 8.1 mph - N/A   Overcast
3:56 AM 59.0 °F 55.9 °F 90% 29.46 in 10.0 mi South 9.2 mph - N/A   Overcast
4:04 AM 59.0 °F 55.4 °F 88% 29.47 in 10.0 mi South 8.1 mph - N/A   Overcast
4:56 AM 57.9 °F 57.0 °F 97% 29.45 in 10.0 mi South 4.6 mph - N/A   Overcast
5:56 AM 57.0 °F 55.0 °F 93% 29.46 in 10.0 mi West 6.9 mph - 0.00 in   Overcast
6:43 AM 57.2 °F 55.4 °F 94% 29.48 in 10.0 mi West 8.1 mph - N/A   Overcast
6:56 AM 57.0 °F 54.0 °F 89% 29.47 in 10.0 mi West 6.9 mph - N/A   Overcast
7:07 AM 57.2 °F 55.4 °F 94% 29.48 in 10.0 mi SW 5.8 mph - N/A   Overcast
7:56 AM 57.0 °F 54.0 °F 89% 29.49 in 10.0 mi WSW 8.1 mph - N/A   Overcast
8:56 AM 57.0 °F 54.0 °F 89% 29.51 in 10.0 mi SW 9.2 mph - N/A   Overcast
9:05 AM 55.4 °F 53.6 °F 94% 29.52 in 5.0 mi Variable 6.9 mph 17.3 mph 0.00 in   Light Drizzle
9:56 AM 57.9 °F 54.0 °F 87% 29.52 in 10.0 mi WSW 11.5 mph 16.1 mph 0.00 in   Overcast
10:39 AM 60.8 °F 53.6 °F 77% 29.52 in 10.0 mi SW 10.4 mph - N/A   Overcast
10:56 AM 61.0 °F 53.1 °F 75% 29.50 in 10.0 mi SSW 10.4 mph 17.3 mph N/A   Mostly Cloudy
11:56 AM 63.0 °F 54.0 °F 72% 29.51 in 10.0 mi SW 17.3 mph 24.2 mph N/A   Mostly Cloudy
12:56 PM 61.0 °F 54.0 °F 78% 29.51 in 10.0 mi SW 10.4 mph 20.7 mph 0.00 in   Mostly Cloudy
1:56 PM 64.0 °F 52.0 °F 65% 29.51 in 10.0 mi SSW 15.0 mph 27.6 mph N/A   Overcast
2:56 PM 64.0 °F 53.1 °F 67% 29.51 in 10.0 mi WSW 10.4 mph 19.6 mph N/A   Overcast
3:56 PM 66.9 °F 53.1 °F 61% 29.50 in 10.0 mi SW 10.4 mph 18.4 mph N/A   Overcast
4:56 PM 64.0 °F 51.1 °F 63% 29.50 in 10.0 mi SW 9.2 mph 18.4 mph N/A   Overcast
5:56 PM 64.9 °F 52.0 °F 63% 29.50 in 10.0 mi SW 9.2 mph 16.1 mph N/A   Overcast
6:56 PM 64.0 °F 52.0 °F 65% 29.49 in 10.0 mi SW 9.2 mph - 0.00 in Rain Light Rain
7:56 PM 63.0 °F 54.0 °F 72% 29.49 in 10.0 mi WSW 6.9 mph - 0.00 in   Mostly Cloudy
8:56 PM 61.0 °F 53.1 °F 75% 29.49 in 10.0 mi WSW 5.8 mph - N/A   Overcast
9:49 PM 59.0 °F 55.4 °F 88% 29.50 in 10.0 mi WSW 8.1 mph - N/A   Overcast
9:56 PM 57.9 °F 55.9 °F 93% 29.50 in 9.0 mi WSW 5.8 mph - 0.00 in   Light Drizzle
10:21 PM 57.2 °F 55.4 °F 94% 29.50 in 1.8 mi West 8.1 mph - 0.00 in   Light Drizzle
10:26 PM 57.2 °F 55.4 °F 94% 29.50 in 3.0 mi WNW 11.5 mph - 0.00 in   Light Drizzle
10:31 PM 57.2 °F 55.4 °F 94% 29.50 in 9.0 mi WNW 10.4 mph - 0.00 in   Overcast
10:44 PM 57.2 °F 55.4 °F 94% 29.51 in 10.0 mi West 9.2 mph - 0.00 in   Overcast
10:56 PM 57.0 °F 55.0 °F 93% 29.51 in 10.0 mi West 6.9 mph - 0.00 in   Overcast
11:03 PM 57.2 °F 53.6 °F 88% 29.51 in 10.0 mi West 9.2 mph 17.3 mph N/A   Overcast
11:13 PM 57.2 °F 53.6 °F 88% 29.51 in 10.0 mi West 8.1 mph - N/A   Overcast
11:21 PM 57.2 °F 53.6 °F 88% 29.51 in 10.0 mi West 8.1 mph - N/A   Overcast
11:56 PM 57.0 °F 54.0 °F 89% 29.51 in 10.0 mi West 5.8 mph - N/A   Overcast